Regional Weather Roundup
Issued by NWS

Home | Current Version | Previous Version | Text Only | Print | Product List | Glossary On
Versions: 1 2 3 4 5 6 7 8 9 10 11 12 13 14 15 16 17 18 19 20 21 22 23 24 25 26 27 28 29 30 31 32 33 34 35 36 37 38 39 40 41 42 43 44 45 46 47 48 49 50
000
ASUS46 KSEW 240010
RWRWA

WASHINGTON REGIONAL WEATHER ROUNDUP
NATIONAL WEATHER SERVICE SEATTLE WA
500 PM PDT TUE SEP 23 2014

NOTE:"FAIR" INDICATES FEW OR NO CLOUDS BELOW 12,000 FEET WITH NO
SIGNIFICANT WEATHER AND/OR OBSTRUCTIONS TO VISIBILITY.

WAZ505-507>509-240100-
SEATTLE, TACOMA, EVERETT, AND VICINITY

CITY           SKY/WX    TMP DP  RH WIND       PRES   REMARKS
EVERETT        PTSUNNY   65  57  75 SE13      29.82S
6HR MIN TEMP:  64; 6HR MAX TEMP:  67; 6HR PCP:  0.03;

BOEING FIELD   LGT RAIN  68  61  78 SE8       29.81F
6HR MIN TEMP:  66; 6HR MAX TEMP:  70; 6HR PCP: TRACE;

RENTON         LGT RAIN  66  63  90 E5        29.80F
6HR MIN TEMP:  63; 6HR MAX TEMP:  68; 6HR PCP:  0.01;

SEATAC AIRPORT LGT RAIN  65  61  87 SE7       29.82F
6HR MIN TEMP:  61; 6HR MAX TEMP:  66; 6HR PCP:  0.01;

JBLM-MCCHORD   LGT RAIN  64  63  95 SE5       29.81F
6HR MIN TEMP:  61; 6HR MAX TEMP:  65; 6HR PCP:  0.05;

PUYALLUP       NOT AVBL
JBLM-FT LEWIS  DRIZZLE   64  62  94 E3        29.80F
6HR MIN TEMP:  61; 6HR MAX TEMP:  65; 6HR PCP:  0.06;

TACOMA NARROWS LGT RAIN  62  58  86 CALM      29.81F FOG
6HR MIN TEMP:  59; 6HR MAX TEMP:  63; 6HR PCP:  0.06;

$$

WAZ001-503-506-510-514-515-240100-
NORTH INTERIOR

CITY           SKY/WX    TMP DP  RH WIND       PRES   REMARKS
BELLINGHAM     CLOUDY    65  57  75 SE16G23   29.74F
6HR MIN TEMP:  64; 6HR MAX TEMP:  69; 6HR PCP: TRACE;

FRIDAY HARBOR  CLOUDY    59  56  89 S6        29.76F
                                      6HR PCP: TRACE;

EASTSOUND      CLOUDY    63  57  82 S7        29.73F
PORT ANGELES   CLOUDY    62  57  83 W3        29.74F
6HR MIN TEMP:  56; 6HR MAX TEMP:  62; 6HR PCP: TRACE;

NAS WHIDBEY    CLOUDY    68  57  68 SE21G31   29.76S
6HR MIN TEMP:  66; 6HR MAX TEMP:  70; 6HR PCP:  0.01;

BURLINGTON     PTSUNNY   66  61  82 SE8       29.79F
$$

WAZ020-022-039-040-504-511-512-240100-
SOUTHWEST INTERIOR

CITY           SKY/WX    TMP DP  RH WIND       PRES   REMARKS
SHELTON        LGT RAIN  63  61  93 CALM      29.78F
6HR MIN TEMP:  61; 6HR MAX TEMP:  64; 6HR PCP:  0.04;

OLYMPIA        LGT RAIN  64  61  90 CALM      29.80F
6HR MIN TEMP:  60; 6HR MAX TEMP:  65; 6HR PCP:  0.03;

CHEHALIS       LGT RAIN  64  63  94 S3        29.80F
KELSO          CLOUDY    64  59  82 CALM      29.82F
6HR MIN TEMP:  63; 6HR MAX TEMP:  66; 6HR PCP:  0.09;

VANCOUVER      LGT RAIN  65  60  84 SE7       29.80F
6HR MIN TEMP:  65; 6HR MAX TEMP:  68; 6HR PCP:  0.11;

SCAPPOOSE, OR  LGT RAIN  64  62  93 CALM      29.80F FOG
6HR MIN TEMP:  63; 6HR MAX TEMP:  68; 6HR PCP:  0.19;

PORTLAND, OR   LGT RAIN  65  63  93 E9        29.81F
6HR MIN TEMP:  65; 6HR MAX TEMP:  68; 6HR PCP:  0.08;

$$

WAZ021-516-517-240100-
WASHINGTON COAST

CITY           SKY/WX    TMP DP  RH WIND       PRES   REMARKS
FORKS          CLOUDY    62  59  90 S9        29.72F
6HR MIN TEMP:  61; 6HR MAX TEMP:  62; 6HR PCP:  0.06;

HOQUIAM        LGT RAIN  64  59  83 SE7       29.77F
6HR MIN TEMP:  61; 6HR MAX TEMP:  64; 6HR PCP:  0.08;

ASTORIA, OR    LGT RAIN  64  59  83 S13       29.75F
6HR MIN TEMP:  63; 6HR MAX TEMP:  65; 6HR PCP: TRACE;

$$

WAZ019-023-024-040-518-519-240100-
CASCADE MOUNTAINS AND COLUMBIA GORGE

CITY           SKY/WX    TMP DP  RH WIND       PRES   REMARKS
STAMPEDE PASS  NOT AVBL
TROUTDALE, OR  LGT RAIN  66  60  81 E5        29.79F
6HR MIN TEMP:  66; 6HR MAX TEMP:  70; 6HR PCP:  0.03;

THE DALLES, OR CLOUDY    72  53  51 NW5       29.78F
6HR MIN TEMP:  68; 6HR MAX TEMP:  73;

$$

WAZ026-027-041>044-520-521-240100-
EAST SLOPES

CITY           SKY/WX    TMP DP  RH WIND       PRES   REMARKS
OMAK           CLOUDY    71  53  52 S6        29.83F
6HR MIN TEMP:  69; 6HR MAX TEMP:  72;

WENATCHEE      CLOUDY    67  55  65 CALM      29.84F
6HR MIN TEMP:  63; 6HR MAX TEMP:  69; 6HR PCP:  0.01;

ELLENSBURG     LGT RAIN  68  54  60 S3        29.85S
6HR MIN TEMP:  61; 6HR MAX TEMP:  70; 6HR PCP: TRACE;

YAKIMA         CLOUDY    72  55  55 CALM      29.83F
6HR MIN TEMP:  68; 6HR MAX TEMP:  74; 6HR PCP: TRACE;

$$

WAZ028-034-035-240100-
COLUMBIA BASIN

CITY           SKY/WX    TMP DP  RH WIND       PRES   REMARKS
EPHRATA        LGT RAIN  72  57  59 NE6       29.83F
6HR MIN TEMP:  70; 6HR MAX TEMP:  75; 6HR PCP: TRACE;

MOSES LAKE     CLOUDY    74  55  51 CALM      29.84F
6HR MIN TEMP:  73; 6HR MAX TEMP:  78; 6HR PCP: TRACE;

PASCO          CLOUDY    77  60  55 N3        29.80S
6HR MIN TEMP:  72; 6HR MAX TEMP:  80;

HERMISTON, OR  CLOUDY    79  53  40 E5        29.78F
6HR MIN TEMP:  71; 6HR MAX TEMP:  80;

$$

WAZ036>038-240100-
NORTHEAST WASHINGTON

CITY           SKY/WX    TMP DP  RH WIND       PRES   REMARKS
SPOKANE GEIGER CLOUDY    74  52  46 S12       29.88R
6HR MIN TEMP:  66; 6HR MAX TEMP:  77; 6HR PCP: TRACE;

SPOKANE FELTS  CLOUDY    77  52  41 SW7       29.88R
6HR MIN TEMP:  68; 6HR MAX TEMP:  78; 6HR PCP:  0.01;

FAIRCHILD AFB  CLOUDY    73  52  47 SW12      29.89S
6HR MIN TEMP:  67; 6HR MAX TEMP:  76; 6HR PCP: TRACE;

COEURDALENE,ID CLOUDY    73  57  56 N3        29.88S
6HR MIN TEMP:  66; 6HR MAX TEMP:  75;

DEER PARK      CLOUDY    70  55  59 CALM      29.89R
6HR MIN TEMP:  67; 6HR MAX TEMP:  75; 6HR PCP: TRACE;

$$

WAZ029>033-240100-
SOUTHEAST WASHINGTON

CITY           SKY/WX    TMP DP  RH WIND       PRES   REMARKS
PULLMAN        CLOUDY    75  52  44 W3        29.92S
6HR MIN TEMP:  70; 6HR MAX TEMP:  79;

LEWISTON, ID   CLOUDY    80  58  46 W3        29.84S
6HR MIN TEMP:  70; 6HR MAX TEMP:  82;

WALLA WALLA    CLOUDY    81  54  39 NW5       29.82F
6HR MIN TEMP:  74; 6HR MAX TEMP:  82;

PENDLETON, OR  CLOUDY    77  53  43 N10       29.81F
6HR MIN TEMP:  71; 6HR MAX TEMP:  79;

$$


USA.gov is the U.S. government's official web portal to all federal, state and local government web resources and services.